CZ-6A DEB, 56661

Orbit data source: Space-Track

CZ-6A DEB, 56661 is space debris in SSO originally from a launch on Fri, 11 Nov 2022 UTC launched from the Taiyaun Space Center, China (TSC). Debris objects in space refer to the collection of defunct objects orbiting the Earth. Examples of debris include non-operational satellites, rocket bodies, and fragments generated from explosions, collisions, or faulty payload assembly.

Loading next visibility...
Identifier
56661, 2022-151AGM
Orbit
SSO
Country
Flag of CNCN / PRC
Related business
Manufacturer
SAST
Mission
Spacecraft
Bus & Motor
Unknown
Mass
Unknown
Launch date (UTC)
2022-11-11 (4 years ago)
Launch vehicle
Unknown
Launch site
Taiyaun Space Center, China (TSC)
Object type
Payload
Rocket body
Debris
Shape & HBR
Unknown shape, 0.1 m
Radar Cross Section
Small (<0.1 m²)

Expand to show TLE details & history
Last TLE update: 3 days ago

TLE from 3 days ago
0 CZ-6A DEB
1 56661U 22151AGM 26170.61215873  .00000359  00000-0  12213-3 0  9993
2 56661  98.6802 222.8995 0100244 277.2143  81.7657 14.40038850170716
Epoch: 2026-06-19T14:41Z
TLE epoch observation values (Epoch: 2026-06-19T14:41:30.514Z)
Latitude
-0.00005°
Longitude
94.68373°
Altitude
751.769 km
Speed
7.484 km/s
True Right ascension
14h 51m 35s
True Declination
0° 00' 00"
Sunlit
Object was in full shadow at epoch
Visualization orbit readout
Latitude
Unknown
Longitude
Unknown
Altitude
Unknown
Speed
Unknown
Apparent Right ascension
Unknown
Apparent Declination
Unknown
Sunlit
N/A
Visualization observer readout
Local Sidereal Time
21:57:37
Azimuth
Unknown
Elevation
Unknown
Doppler factor
Unknown
Orbital elements
Apogee altitude
827.011 km
Perigee altitude
683.99 km
Semi-major axis
7,133.637 km
Eccentricity
0.01002
Inclination
98.6802°
RAAN
222.8995°
Arg. of periapsis
277.2143°
True anomaly
82.90454°
Mean anomaly
81.7657°
Eccentric anomaly
82.33492°
Mean motion
3.60227 °/min
Orbital period
99.94 mins
BSTAR
0.00012213
Loading maneuver chart data...
Computing Atmospheric mass density...
Loading historical data...
Loading historical data...
Loading historical data...
Loading historical data...
Loading historical data...
Loading historical data...
Loading historical data...

Documentation

Showing up to 5 results
|